Dewpoint
57 57 58 57 57 57 58 58 59 59 59 59 59 60 61 61 60 51 44 47 53 68 64 35 35 37 39 36 36 39 46 44 42 43 52 52 54 55 58 60 60 59 59 59 61
57 57 57 56 57 57 58 58 58 59 59 59 59 59 61 61 54 41 55 64 66 70 36 38 37 34 34 34 36 37 44 43 44 39 41 51 51 49 56 58 62 61 60 62 60
56 56 56 56 57 57 57 58 58 58 58 58 59 60 61 60 47 34 66 65 68 60 39 38 36 34 31 31 34 38 41 41 44 41 43 45 50 53 56 57 61 61 60 60 61
56 56 56 56 57 57 57 57 57 57 58 58 59 60 61 55 34 35 68 66 66 44 39 36 35 31 31 30 36 41 36 38 43 46 42 46 44 49 52 58 55 61 62 60 60
56 56 56 56 56 57 57 57 57 57 57 58 59 60 54 45 35 43 68 66 46 35 34 32 31 31 32 27 30 32 33 31 41 41 41 44 47 48 52 59 62 61 63 63 58
56 55 55 55 55 56 57 57 57 57 57 58 59 60 55 35 34 35 48 46 38 35 32 32 30 32 32 30 32 36 31 32 35 34 35 43 47 52 52 59 64 62 61 62 58
55 55 55 55 55 55 57 57 57 56 57 58 59 55 45 37 32 34 39 36 36 32 30 29 30 30 31 33 33 33 29 32 35 31 34 39 49 52 55 58 60 57 61 62 58
55 55 55 55 55 56 57 57 56 56 57 59 60 53 41 34 34 32 21 30 32 29 26 28 31 30 30 32 31 30 32 33 36 32 40 33 37 53 57 45 46 53 56 58 59
55 55 55 54 54 56 56 56 56 57 59 60 55 52 34 41 24 22 20 26 28 28 28 29 29 29 29 28 30 32 29 33 32 34 32 31 36 51 51 52 51 52 55 57 59
57 56 55 54 55 55 55 55 55 56 57 52 47 39 41 32 20 17 19 23 26 26 25 25 25 23 24 25 27 28 29 31 32 31 33 28 45 49 51 52 51 53 58 56 58
56 56 56 54 55 55 52 50 44 44 44 36 35 35 28 32 11 12 19 26 26 23 21 22 20 20 21 23 28 23 22 24 28 33 30 37 46 46 50 50 50 52 56 62 62
54 54 56 54 55 55 51 47 44 32 30 40 33 28 26 17 17 18 25 25 24 23 22 19 18 19 19 20 22 19 19 21 28 32 30 46 46 48 48 48 51 53 56 61 62
55 54 55 55 54 52 46 39 37 33 32 33 32 26 20 21 17 17 24 24 24 23 20 19 19 20 19 16 21 16 18 22 27 33 28 44 44 48 48 50 48 52 56 57 53
55 55 53 55 49 45 39 38 37 35 32 30 25 19 18 19 19 19 22 23 21 20 19 17 18 18 17 16 16 16 21 21 24 24 25 35 37 46 48 49 50 43 55 59 58
54 54 53 53 51 47 41 32 30 33 29 23 17 18 20 17 22 20 22 21 20 20 19 19 19 16 15 16 16 19 23 21 23 21 21 39 36 46 49 46 47 46 48 57 56
53 53 53 51 50 49 48 39 38 32 27 19 17 20 21 22 22 21 20 20 21 19 23 23 20 20 18 17 17 21 20 21 20 21 27 29 31 40 44 48 50 48 50 49 55
52 51 53 50 44 48 45 38 33 28 25 16 21 21 20 21 23 19 18 17 18 25 23 24 22 19 20 19 21 22 19 20 23 27 25 32 39 41 46 45 53 55 53 49 58
52 51 51 50 50 49 43 37 34 28 25 18 20 19 20 19 23 20 17 17 20 20 21 27 28 26 20 19 19 20 21 20 20 22 29 34 38 43 52 53 53 56 55 55 57
51 50 49 50 49 47 43 35 35 39 34 17 14 16 20 19 22 21 20 20 21 20 22 32 28 29 20 21 20 18 21 22 16 18 29 39 45 47 50 50 54 56 52 55 59
53 52 48 47 45 44 41 35 36 36 34 19 20 22 23 21 23 23 24 24 24 24 23 27 26 27 27 20 21 34 22 20 29 25 26 38 41 43 49 52 53 55 56 56 57
53 50 48 43 42 44 39 38 37 33 29 28 30 30 26 24 23 23 25 28 25 24 25 42 33 28 29 31 28 26 28 30 29 27 27 35 44 48 53 52 53 56 59 55 56
52 48 42 41 42 42 37 36 39 31 30 29 34 31 29 28 23 34 33 33 32 31 34 41 30 30 26 28 30 28 30 30 31 29 29 32 43 51 53 53 53 55 47 54 56
51 51 40 39 36 34 35 34 35 29 30 29 31 32 33 32 35 34 35 34 33 37 37 33 35 28 25 27 30 30 30 32 28 30 31 28 40 52 53 50 51 44 50 53 58
52 49 43 40 37 32 35 41 35 32 31 33 36 34 33 33 32 32 33 33 32 36 53 40 26 23 23 26 28 27 25 24 25 27 28 31 41 47 48 49 49 46 53 55 61
53 48 47 41 35 32 36 40 38 32 34 35 37 35 35 36 35 35 34 34 34 49 36 31 29 30 29 29 28 28 26 25 23 26 24 27 39 47 50 50 46 49 55 58 59
47 54 47 46 44 43 42 38 36 38 38 37 39 34 37 39 39 37 36 35 36 37 32 33 32 35 33 31 30 28 27 25 24 25 34 41 44 46 51 54 57 55 58 58 60
50 48 50 48 43 37 40 42 36 40 39 37 36 38 41 40 40 38 36 33 28 29 30 32 32 35 32 36 34 29 29 27 36 34 46 46 48 53 54 58 57 56 57 58 59
Lifted_Index
13 13 13 13 13 14 13 13 13 13 13 13 12 12 11 10 8 6 5 5 6 6 5 5 5 5 5 4 4 3 2 2 2 2 1 0 -1 -1 -1 -1 -1 -1 -1 -1 -2
13 13 13 13 13 13 13 13 13 13 13 13 13 12 11 10 8 6 5 6 6 6 5 5 6 6 5 4 3 3 3 3 3 3 2 1 -1 -1 -1 -1 -1 -2 -2 -1 -2
13 13 13 12 12 13 13 13 13 13 13 13 13 12 11 10 8 7 6 6 6 6 5 5 6 6 5 3 3 3 4 4 4 4 3 2 0 -1 -2 -2 -2 -2 -2 -2 -2
14 13 13 13 12 12 13 13 13 13 13 13 13 12 11 9 8 8 7 7 7 6 6 6 6 5 4 3 3 4 4 4 4 4 3 2 1 -0 -1 -2 -2 -3 -3 -2 -1
14 13 13 13 13 12 12 13 13 13 13 13 12 11 10 8 8 8 8 8 7 7 6 6 6 5 4 3 4 4 4 4 4 3 3 2 1 -0 -1 -2 -2 -2 -3 -2 -2
13 13 13 13 13 12 12 12 13 13 13 13 12 11 9 8 8 8 7 7 7 7 6 6 6 5 5 4 4 4 4 4 4 3 2 2 1 -1 -2 -2 -2 -2 -2 -3 -3
13 13 13 13 13 12 12 12 12 13 13 12 11 10 9 8 8 8 7 7 7 7 7 6 6 5 5 4 4 4 4 3 3 2 2 1 1 -1 -2 -2 -2 -2 -3 -4 -4
12 12 12 12 12 12 12 11 12 12 12 11 10 9 8 8 8 8 8 7 7 7 7 6 6 5 5 4 4 3 3 2 1 1 1 1 1 -1 -1 -1 -2 -3 -4 -5 -5
11 10 11 12 12 12 12 11 11 12 11 10 9 8 8 8 9 9 9 8 7 7 7 6 6 5 5 4 3 2 1 0 -0 0 1 1 0 -1 -1 -1 -1 -2 -4 -5 -5
10 9 10 11 12 12 11 11 10 10 10 9 8 7 7 7 8 9 8 7 7 7 6 6 6 5 4 3 2 1 1 0 -0 -0 0 0 -0 -0 -1 -1 -1 -2 -2 -4 -4
9 9 10 11 12 12 11 9 8 8 8 8 7 7 7 7 7 8 8 7 6 6 6 5 4 4 3 3 2 1 1 0 -0 -0 -0 -0 0 0 -0 -1 -1 -1 -2 -3 -3
9 9 9 11 12 12 10 7 6 7 7 7 7 7 7 7 7 7 7 7 6 6 5 5 4 3 2 2 1 1 1 0 -0 -0 -0 -0 0 1 0 0 -0 -1 -2 -2 -3
9 9 9 11 12 11 9 7 6 6 6 5 6 6 7 7 7 6 6 6 6 5 5 4 3 2 2 1 1 1 1 -0 -0 -0 -0 -0 0 1 1 1 1 -0 -1 -2 -3
8 8 10 11 10 9 8 7 7 6 5 4 5 5 6 6 6 6 6 6 5 4 4 3 2 2 1 1 2 1 1 0 -0 -0 -0 -0 -0 0 1 1 1 -0 -1 -2 -3
7 8 10 10 9 7 6 6 6 5 4 4 4 5 5 5 5 5 5 5 4 4 3 2 2 2 2 2 1 1 1 0 0 -0 -0 -0 0 1 1 0 -0 -1 -2 -2 -2
7 8 10 10 7 5 5 5 5 4 3 3 4 4 4 4 4 4 4 4 4 3 3 2 2 1 1 2 1 1 1 0 0 -0 -0 0 1 1 1 0 -1 -2 -2 -3 -3
8 9 10 8 6 5 5 4 3 2 2 2 3 3 3 3 3 3 3 3 3 2 2 1 1 1 1 2 2 1 0 0 -0 -1 -0 0 1 1 0 -0 -1 -2 -3 -4 -4
9 9 9 7 5 5 5 4 2 1 1 1 2 3 3 2 2 2 3 3 2 1 1 0 0 0 1 1 1 1 0 -0 -1 -1 -1 -0 -0 -0 -0 -1 -1 -2 -3 -4 -5
8 7 7 6 5 5 4 2 1 0 -0 -0 1 2 2 1 1 1 2 2 1 1 -0 -0 -0 -0 -0 0 1 0 0 -0 -1 -1 -1 -1 -0 -0 -1 -1 -1 -1 -2 -4 -5
5 4 4 4 5 4 3 1 0 0 -0 -0 0 0 0 -0 0 1 1 1 0 -0 -0 -0 -0 -0 -0 -0 0 0 -0 -0 -0 -0 -1 -1 -1 -0 -0 -1 -1 -1 -2 -4 -5
3 2 2 4 4 3 1 0 0 0 -0 -0 -0 -0 -0 -0 -0 -0 -0 -0 -0 0 0 1 0 0 -0 -0 -0 -0 0 0 0 -0 -0 -1 -1 -1 -0 -1 -1 -1 -2 -4 -5
1 1 2 3 3 2 1 0 -0 0 0 1 0 -0 -0 -0 -0 -0 -1 -0 0 1 1 1 1 0 0 -0 0 0 0 0 0 0 -0 -1 -1 -1 -1 -0 0 -0 -2 -4 -5
0 0 1 3 3 2 1 0 -0 -0 0 0 0 -0 -0 -0 -0 -0 -0 -0 0 1 2 2 1 1 1 0 1 1 1 1 0 0 0 -1 -1 -1 -0 0 1 -0 -2 -4 -5
-0 -0 1 2 2 2 1 -0 -1 -0 0 0 -0 -0 -0 -0 -0 -0 -0 0 1 2 2 2 2 2 1 1 1 2 2 1 1 1 0 -0 -1 -1 -0 0 1 -0 -2 -4 -5
-0 -1 -0 0 1 1 1 -0 -1 -0 0 0 0 -0 -0 -0 -0 0 0 0 1 2 3 2 2 2 2 2 2 2 2 2 1 1 0 0 -0 -0 -0 0 -0 -1 -3 -4 -4
0 -0 -0 -0 -0 -0 -0 -0 -0 -0 -0 -0 0 0 0 0 1 1 1 1 1 2 3 3 3 3 2 2 2 2 2 2 1 0 -1 -1 -1 -0 -0 -1 -2 -3 -3 -3 -4
2 1 -0 -1 -1 -1 -1 -1 -0 -0 -0 -0 0 0 1 1 1 1 1 1 2 2 3 3 3 3 2 2 2 2 2 1 0 -1 -2 -2 -1 -1 -1 -2 -3 -3 -3 -3 -4